{"data":{"norad_id":59764,"epoch":"2026-05-25T02:53:40.166592Z","epoch_age_seconds":54795,"freshness":"FRESH","line1":"1 59764U 24091M   26145.12060378  .00074869  00000+0  48623-3 0  9991","line2":"2 59764  53.1533 188.3053 0006300  35.4994 324.6444 15.75311711117530","mean_motion":15.75311711,"eccentricity":0.00063,"inclination_deg":53.1533,"raan_deg":188.3053,"arg_perigee_deg":35.4994,"mean_anomaly_deg":324.6444,"bstar":0.00048623,"rev_number":11753,"period_min":91.410480220825,"perigee_km":339.50953258555,"apogee_km":347.97910304599,"semimajor_km":6721.8813178158,"source":"CELESTRAK","updated_at":"2026-05-25T13:38:19.057931Z"}}